Temperature
10 11 11 10 10 11 11 11 11 11 11 10 10 10 10 10 11 11 11 12 12 13 13 14 15 15 16 16 17 17 17 17 17 16 16 16 16 16 16 16 16 15 15 15
10 11 11 10 10 10 10 10 11 11 10 10 10 10 11 10 10 11 11 12 13 13 13 14 14 15 15 16 16 16 16 16 16 16 16 16 16 16 16 16 16 15 15 15
9 10 11 10 9 10 10 10 9 9 9 10 10 10 10 11 10 11 12 12 13 13 13 13 14 14 14 14 15 15 15 15 15 15 15 15 15 15 15 15 15 15 15 15
9 10 10 10 10 10 10 10 10 10 10 10 9 10 12 11 11 12 12 13 13 13 13 13 13 13 13 13 14 14 14 14 14 14 14 14 14 14 14 15 14 14 14 14
8 9 10 10 11 10 9 10 10 9 9 10 10 12 12 12 12 12 13 13 13 13 13 13 13 13 13 13 13 13 13 13 13 13 13 13 13 13 13 13 13 13 13 14
8 9 9 10 10 10 9 10 10 9 9 9 9 9 10 12 13 13 14 14 14 14 14 13 13 13 13 12 12 12 12 12 12 12 12 12 12 12 12 12 12 12 12 13
8 8 9 10 10 10 9 10 10 10 10 10 9 9 11 12 13 13 14 14 14 14 14 14 13 13 13 12 12 12 12 12 12 12 12 11 11 11 12 12 12 12 12 12
7 8 9 11 10 9 9 11 11 11 11 10 11 12 12 13 13 14 14 14 14 14 14 14 14 13 13 12 12 12 12 11 11 11 11 11 11 11 11 12 12 12 12 12
7 8 10 11 11 11 11 11 11 11 11 11 11 12 12 13 13 14 14 15 15 15 14 14 14 14 13 13 12 12 12 11 11 11 11 11 11 11 11 11 11 11 11 11
8 8 10 11 11 11 11 11 11 11 11 11 11 12 12 13 13 14 14 15 15 15 15 15 14 14 14 13 13 12 12 11 11 11 11 11 11 11 11 11 11 11 11 11
8 9 10 11 11 11 11 11 11 11 11 11 12 12 12 13 13 14 14 15 15 15 15 15 15 14 14 13 13 12 12 12 11 11 11 11 11 10 10 10 10 10 10 10
8 10 10 11 12 11 11 11 11 11 11 11 11 12 12 13 13 14 14 15 15 15 15 15 15 15 14 14 13 13 12 12 11 11 11 11 10 10 10 10 10 10 10 10
13 13 12 12 12 12 11 11 11 11 11 11 12 12 12 13 13 14 15 15 15 16 16 16 15 15 14 14 13 13 12 12 11 11 11 11 10 10 10 9 9 9 9 9
13 13 12 12 12 12 11 11 11 11 11 11 11 12 12 13 13 14 15 15 16 16 16 16 16 15 15 14 14 13 12 12 11 11 11 11 10 10 10 9 9 9 9 9
13 13 13 12 12 11 11 11 11 11 11 11 11 12 12 12 13 14 15 15 16 16 16 16 16 15 15 14 14 13 13 12 11 11 11 11 10 10 10 9 9 9 9 9
13 12 12 12 12 11 11 11 11 11 11 11 11 12 12 12 13 13 14 15 16 16 16 16 16 16 15 15 14 13 13 12 12 11 11 11 10 10 10 10 9 9 9 9
13 12 12 12 12 11 11 11 11 11 11 11 11 11 12 12 13 13 14 15 15 16 16 16 16 16 15 15 14 14 13 12 12 11 11 10 10 10 10 10 10 9 9 9
14 14 13 13 12 11 11 11 11 11 11 11 11 11 11 12 12 13 14 15 15 16 16 16 16 16 15 15 14 14 13 12 12 11 11 10 10 10 10 10 10 9 9 9
14 13 13 12 12 11 11 11 11 11 11 11 11 11 11 11 12 12 13 14 15 16 16 16 16 16 15 15 14 14 13 12 12 11 11 11 10 10 10 10 10 10 9 9
13 13 13 12 12 11 11 11 11 11 11 11 11 11 11 11 12 12 13 13 14 15 15 16 16 16 15 15 14 14 13 12 12 11 11 11 10 10 10 10 10 10 9 9
13 13 13 12 12 12 11 11 11 11 11 11 11 11 11 11 11 12 13 13 14 14 15 15 15 15 15 15 14 14 13 12 12 11 11 11 10 10 10 10 10 10 9 9
13 13 13 12 12 12 11 11 11 11 11 11 11 11 11 11 11 12 12 12 13 14 15 15 15 15 15 15 14 14 13 12 12 11 11 11 11 10 10 10 10 10 9 9
14 13 13 12 12 12 11 11 11 11 11 11 11 11 11 11 11 11 12 12 13 14 14 15 15 15 15 15 14 14 13 12 12 11 11 11 10 10 10 10 10 10 9 9
14 13 13 12 12 12 12 11 11 11 11 11 11 11 11 11 11 11 11 12 13 13 14 14 15 15 15 15 14 14 13 12 12 11 11 11 10 10 10 10 10 10 9 9
14 13 13 12 12 12 12 12 11 11 11 11 11 11 11 11 11 11 11 12 12 13 13 14 14 14 14 14 14 14 13 13 12 11 11 11 10 10 10 10 10 9 9 9
14 13 13 13 13 12 12 12 12 11 11 11 11 11 11 11 11 11 11 11 12 12 13 13 14 14 14 14 14 14 13 13 12 11 11 11 10 10 10 10 10 9 9 9
13 13 13 12 12 12 12 12 12 12 11 11 11 11 11 11 11 11 11 11 11 12 12 13 13 13 14 14 14 13 13 13 12 12 11 11 10 10 10 10 10 9 9 9
Wind_Speed
4 3 5 10 13 13 10 7 5 5 6 11 15 14 14 14 15 15 16 15 14 12 10 10 11 10 9 8 6 5 5 6 5 4 3 3 3 2 1 2 3 3 3 4
1 1 5 10 15 13 10 8 8 8 7 12 13 11 12 14 16 15 14 13 11 11 10 10 10 9 9 9 8 7 8 7 6 5 5 5 4 4 3 3 3 3 3 4
1 4 2 7 10 9 6 8 7 7 8 14 13 14 12 12 14 13 13 11 11 10 9 8 8 8 9 9 9 9 9 8 7 6 6 6 6 6 5 4 4 3 3 3
2 3 4 3 3 3 3 4 6 6 9 11 12 12 7 6 11 13 12 10 9 8 7 7 7 8 8 9 9 9 9 9 8 7 7 7 7 6 6 4 4 3 4 4
3 3 1 2 2 2 2 3 4 7 11 12 14 7 5 8 12 10 9 7 6 5 5 5 7 7 7 8 8 8 8 8 8 7 7 7 7 7 5 5 5 4 4 4
4 3 2 4 3 1 1 3 4 6 8 10 10 7 8 14 14 12 10 7 5 5 4 5 6 6 7 7 7 7 7 6 7 7 7 7 7 6 5 5 5 5 5 5
3 2 5 5 2 2 2 4 6 5 6 6 4 4 10 14 11 9 8 7 6 5 4 4 5 5 6 6 6 5 5 6 7 7 7 7 7 6 7 7 7 7 7 6
3 2 5 5 4 4 6 4 4 5 5 6 7 9 9 10 10 11 9 7 6 5 5 5 3 3 5 5 5 3 4 6 7 7 7 7 8 8 8 8 8 8 7 7
7 6 5 5 6 5 4 3 4 4 6 6 7 7 8 9 10 9 9 8 6 5 6 5 3 1 3 4 3 2 4 4 5 6 6 7 8 8 8 8 7 7 7 7
3 6 5 5 4 4 5 6 6 6 7 5 6 8 9 8 9 9 8 7 6 5 5 5 3 2 2 2 1 2 3 3 3 4 5 6 6 7 7 7 7 7 7 7
4 5 3 5 6 6 5 5 5 5 4 5 6 7 6 7 8 8 7 7 6 5 6 6 5 3 2 1 2 2 2 2 2 3 3 4 5 5 5 5 6 5 5 5
8 8 7 7 7 5 5 4 4 4 5 6 5 6 6 7 7 7 8 7 7 6 6 6 5 4 3 2 3 2 1 1 1 1 1 2 2 3 4 5 7 9 9 7
7 6 7 4 4 4 4 4 3 3 4 5 6 5 6 6 6 8 8 8 8 8 8 7 6 5 4 4 4 3 2 1 0 1 1 1 1 2 3 5 6 8 11 11
6 7 4 5 5 5 4 2 2 3 4 5 5 6 6 6 7 9 9 9 9 8 7 6 5 6 4 5 5 4 3 2 1 1 1 2 2 2 2 3 4 4 7 11
8 7 7 6 5 4 3 1 1 3 5 6 5 6 7 8 8 9 9 9 8 7 6 5 5 5 3 5 6 5 4 2 2 2 2 2 3 3 3 4 4 4 4 6
9 7 7 6 7 6 3 2 2 4 5 5 6 7 8 8 8 9 8 8 8 8 8 7 6 5 3 6 6 4 3 4 4 3 3 3 3 3 3 3 4 4 5 5
12 9 8 8 8 7 5 5 4 5 5 6 7 8 8 8 8 9 9 9 8 7 6 6 7 6 3 6 7 5 4 3 5 4 3 3 3 3 3 3 3 3 3 4
13 13 11 10 8 7 6 4 4 5 5 5 7 6 7 7 8 9 10 10 8 7 6 7 7 5 2 5 6 5 5 4 3 3 3 3 3 3 3 3 2 2 2 3
10 11 10 10 9 8 6 5 4 4 5 5 5 6 6 7 7 8 9 8 8 8 9 10 12 5 1 4 6 5 5 5 4 3 3 4 4 3 3 3 2 2 2 2
10 10 11 10 8 7 6 5 4 4 4 3 4 5 7 8 8 8 8 6 5 5 9 10 8 4 1 4 7 5 5 5 5 4 3 3 3 3 3 3 2 2 2 2
12 11 10 10 8 7 7 5 4 4 3 3 3 5 6 8 7 7 6 6 7 8 9 9 5 3 1 3 6 5 5 5 5 4 4 4 3 3 3 3 3 2 2 2
11 11 11 10 8 7 5 5 5 4 4 3 4 4 5 7 8 7 6 5 7 12 9 6 4 4 3 4 4 5 5 5 5 4 4 4 4 4 4 4 3 3 3 3
10 11 10 10 9 7 5 5 5 5 4 4 4 4 4 5 5 5 7 7 7 12 9 6 7 7 3 4 4 5 5 5 5 5 4 4 4 4 4 4 4 4 4 4
10 10 10 8 7 6 6 6 6 5 5 5 5 5 4 4 5 5 5 10 13 13 7 9 11 5 4 4 4 5 5 5 5 4 4 4 4 4 4 4 4 4 4 5
10 10 8 9 8 7 8 6 5 4 5 4 6 6 4 4 5 5 7 8 11 11 7 9 10 3 3 4 4 5 5 5 5 5 5 4 4 4 4 4 5 5 5 5
9 9 9 10 8 7 6 5 5 4 4 4 5 5 4 4 5 5 5 7 8 9 7 5 5 3 1 3 4 4 4 5 5 5 5 5 5 5 5 5 6 5 5 5
7 6 6 6 6 6 6 6 6 6 6 6 6 5 4 4 4 5 5 5 6 6 6 5 4 3 2 2 3 4 4 4 5 5 5 5 5 5 5 6 5 5 5 5
Wind_Direction
95 79 51 35 19 22 38 32 43 32 23 358 347 344 346 353 359 8 13 20 22 23 21 23 27 29 32 38 45 63 68 67 63 49 39 40 30 16 347 293 271 246 228 222
106 347 41 35 21 18 25 22 24 28 18 341 334 341 354 2 4 5 5 8 12 17 21 24 23 24 31 35 37 47 54 50 43 36 27 20 11 9 11 349 316 288 257 240
5 310 4 21 2 9 24 25 17 13 336 329 338 344 347 353 359 358 357 359 4 6 7 11 15 21 28 27 33 43 43 37 31 27 23 11 7 12 10 357 340 318 293 263
80 56 51 295 293 341 357 27 13 346 334 336 329 313 308 352 356 351 349 350 350 352 356 1 10 18 23 27 31 35 33 28 21 19 14 8 8 2 355 352 343 325 313 298
94 92 102 309 348 355 346 337 346 339 338 341 336 333 347 355 353 339 331 330 329 336 342 355 6 8 25 26 25 28 24 19 13 13 11 10 6 354 352 351 347 337 326 323
100 113 209 247 276 237 180 311 314 331 329 336 355 17 332 330 334 330 332 330 330 333 344 358 356 6 26 18 19 15 7 8 10 13 17 14 5 359 354 354 351 354 3 3
115 158 252 243 254 127 140 262 299 305 304 318 330 268 284 308 318 320 323 325 332 338 340 336 344 11 18 8 360 346 359 15 18 15 18 18 14 14 11 14 18 21 21 20
144 171 246 219 153 174 214 240 269 278 283 293 291 290 300 313 324 331 334 333 334 335 327 325 343 12 7 348 332 355 26 29 25 22 24 24 23 22 22 23 26 24 21 20
190 212 234 204 202 217 195 230 259 264 283 294 298 306 315 318 326 330 331 330 330 326 322 323 333 356 346 327 340 47 54 39 29 29 30 29 31 27 25 25 26 22 21 20
228 257 242 227 230 241 220 231 257 269 281 285 290 301 312 316 323 329 331 326 326 326 324 315 310 297 285 313 53 86 65 38 29 34 33 33 34 30 30 25 23 21 21 18
230 253 235 240 229 233 244 256 274 289 282 285 294 302 306 311 315 319 321 317 317 310 297 290 288 277 270 223 147 105 72 40 29 37 41 38 38 31 25 24 20 19 14 12
212 207 184 216 219 215 231 259 281 297 308 313 306 301 306 308 307 311 315 316 316 309 297 289 279 263 252 199 172 153 108 22 9 16 38 40 26 20 21 22 25 33 30 24
191 175 176 197 197 202 216 245 270 285 293 306 311 306 309 306 305 312 316 322 318 308 295 288 275 258 242 194 175 170 168 166 29 34 55 63 39 34 18 5 15 29 28 29
160 133 152 190 198 202 206 237 289 315 316 310 305 310 315 312 312 320 320 316 311 306 301 291 272 261 238 184 169 167 162 149 128 77 85 89 85 75 60 41 18 360 7 24
178 169 170 178 180 184 187 204 305 323 322 323 317 320 323 324 319 316 313 316 318 319 318 315 294 278 235 177 168 166 160 153 129 101 95 96 92 83 70 57 42 19 13 14
172 160 153 161 180 190 192 211 255 289 303 307 311 317 317 313 309 311 317 327 332 325 320 316 304 294 231 175 163 158 164 165 145 122 109 103 96 90 79 65 50 39 31 11
153 169 178 187 197 200 205 217 235 264 285 296 303 309 317 324 328 330 329 328 319 306 306 313 309 305 232 174 161 157 154 151 139 120 121 123 118 110 103 90 71 53 31 25
179 182 178 179 184 196 214 232 247 264 273 286 303 317 328 330 325 320 321 324 330 337 345 337 324 315 230 170 159 152 149 148 143 140 134 131 128 126 121 110 95 74 39 40
177 171 174 178 179 181 198 222 243 264 283 296 312 318 313 312 312 315 321 333 344 344 335 331 329 332 229 177 157 148 148 147 142 138 136 138 131 131 133 132 121 100 81 69
174 172 174 180 180 182 198 215 232 262 282 297 314 321 322 321 322 324 326 322 305 295 305 316 322 320 244 178 158 151 154 155 154 151 147 147 152 155 156 155 150 141 124 113
175 173 175 180 187 196 203 204 211 246 275 294 298 301 304 307 315 322 326 321 311 318 321 324 330 318 241 178 161 154 157 158 160 163 164 166 168 168 172 172 169 167 159 148
177 176 178 180 184 197 207 201 206 228 255 278 290 300 311 315 320 320 302 279 297 320 325 314 312 298 250 175 161 161 162 163 164 165 169 174 177 182 186 183 181 177 168 162
177 177 178 181 188 196 198 203 211 218 234 253 270 283 289 290 292 296 307 305 310 319 321 304 307 303 225 164 163 166 168 169 171 176 183 186 188 188 188 189 186 178 170 163
177 179 183 180 169 173 201 221 219 221 231 249 256 258 260 284 297 275 269 302 317 320 316 311 319 306 170 158 165 168 172 176 178 181 185 187 189 189 188 185 182 177 170 164
182 179 173 168 179 199 212 212 212 227 237 254 268 267 251 229 246 281 298 305 318 326 322 326 334 327 160 164 173 177 179 184 183 180 184 186 191 192 191 186 181 173 169 167
186 188 190 194 197 199 194 188 200 217 218 244 267 266 263 260 265 278 293 306 318 326 327 324 328 329 206 188 185 185 185 188 188 186 190 191 194 192 191 189 182 174 170 167
197 194 191 200 209 199 189 189 203 216 213 215 240 255 255 266 280 293 304 311 319 322 322 322 322 309 263 219 203 195 189 189 189 189 190 192 192 195 195 189 180 171 165 162
Height
1556 1554 1553 1552 1549 1544 1542 1542 1542 1542 1540 1540 1535 1532 1527 1522 1516 1510 1506 1502 1499 1497 1495 1493 1491 1490 1490 1489 1488 1489 1490 1491 1492 1493 1494 1494 1495 1496 1497 1498 1499 1499 1499 1499
1557 1555 1553 1554 1552 1549 1547 1547 1545 1543 1544 1541 1537 1533 1528 1524 1519 1515 1511 1508 1505 1503 1500 1497 1495 1494 1492 1490 1489 1489 1490 1490 1491 1491 1492 1492 1493 1493 1494 1495 1495 1496 1496 1497
1562 1558 1556 1561 1560 1557 1555 1554 1552 1552 1551 1543 1538 1534 1531 1528 1523 1520 1516 1513 1511 1508 1505 1502 1500 1498 1496 1494 1493 1492 1491 1490 1490 1490 1490 1490 1490 1491 1491 1491 1492 1492 1493 1493
1564 1561 1567 1567 1559 1559 1557 1556 1555 1553 1549 1545 1541 1536 1533 1531 1527 1523 1520 1518 1515 1513 1510 1508 1505 1503 1501 1499 1497 1495 1494 1492 1491 1491 1490 1489 1489 1489 1488 1488 1488 1488 1489 1489
1567 1567 1566 1562 1559 1559 1559 1557 1555 1553 1549 1545 1540 1535 1533 1532 1529 1526 1524 1521 1519 1517 1515 1513 1510 1508 1505 1503 1501 1498 1496 1495 1493 1492 1490 1489 1488 1487 1486 1486 1485 1485 1485 1486
1567 1566 1569 1565 1559 1558 1561 1558 1555 1552 1550 1546 1542 1541 1539 1533 1530 1528 1526 1524 1522 1520 1518 1516 1513 1511 1508 1506 1504 1502 1500 1498 1495 1493 1492 1490 1489 1487 1486 1485 1484 1483 1483 1483
1568 1567 1565 1559 1557 1558 1564 1562 1554 1552 1550 1548 1546 1546 1541 1535 1532 1529 1527 1525 1523 1522 1520 1518 1516 1514 1511 1509 1507 1505 1503 1501 1498 1496 1494 1492 1491 1489 1487 1486 1484 1483 1482 1482
1569 1568 1566 1554 1555 1558 1557 1553 1552 1551 1550 1548 1545 1542 1539 1536 1533 1530 1527 1526 1524 1523 1522 1520 1518 1516 1514 1511 1510 1507 1505 1503 1501 1499 1497 1495 1493 1491 1489 1487 1486 1484 1483 1483
1561 1560 1552 1551 1552 1552 1552 1552 1551 1550 1548 1547 1544 1542 1539 1536 1533 1530 1528 1526 1525 1524 1523 1522 1520 1518 1516 1514 1512 1510 1508 1506 1504 1502 1500 1498 1496 1494 1492 1489 1488 1486 1485 1484
1554 1551 1550 1550 1550 1551 1551 1550 1550 1549 1547 1546 1544 1541 1539 1536 1533 1531 1529 1527 1525 1524 1523 1522 1521 1520 1518 1516 1514 1512 1510 1508 1506 1505 1503 1501 1498 1496 1494 1491 1490 1488 1487 1485
1551 1548 1548 1548 1548 1549 1549 1549 1549 1548 1547 1545 1543 1541 1538 1536 1533 1531 1529 1527 1525 1524 1523 1522 1521 1520 1519 1517 1515 1513 1512 1510 1508 1507 1505 1503 1500 1498 1496 1494 1492 1491 1489 1488
1545 1541 1543 1544 1545 1547 1548 1548 1547 1546 1545 1544 1542 1540 1537 1535 1533 1530 1528 1526 1525 1523 1522 1522 1521 1520 1519 1518 1516 1514 1513 1511 1510 1508 1506 1504 1502 1500 1498 1496 1495 1493 1492 1490
1536 1537 1540 1542 1544 1545 1546 1546 1546 1545 1544 1543 1541 1539 1537 1534 1532 1529 1527 1525 1524 1522 1521 1520 1520 1519 1519 1518 1516 1515 1514 1512 1510 1509 1507 1506 1504 1502 1500 1499 1498 1496 1494 1493
1534 1537 1539 1541 1542 1544 1544 1545 1544 1544 1543 1542 1540 1538 1536 1533 1531 1529 1526 1524 1523 1521 1520 1519 1519 1518 1518 1517 1516 1515 1514 1512 1511 1510 1509 1507 1506 1504 1503 1501 1500 1499 1498 1496
1532 1535 1537 1539 1541 1542 1543 1543 1543 1542 1542 1541 1539 1537 1534 1532 1530 1527 1525 1523 1521 1520 1519 1518 1517 1517 1517 1516 1516 1515 1514 1513 1512 1511 1510 1508 1507 1506 1505 1504 1503 1502 1501 1499
1529 1533 1535 1537 1539 1540 1541 1541 1541 1541 1540 1539 1538 1535 1533 1531 1529 1526 1524 1522 1520 1519 1517 1517 1516 1516 1515 1515 1515 1514 1513 1513 1512 1511 1510 1510 1509 1508 1507 1506 1505 1505 1504 1503
1525 1529 1532 1534 1536 1538 1539 1539 1539 1539 1538 1537 1536 1534 1532 1529 1527 1525 1523 1521 1519 1518 1516 1515 1515 1514 1514 1514 1514 1513 1513 1512 1512 1511 1511 1511 1510 1510 1509 1508 1508 1507 1506 1506
1522 1526 1529 1531 1533 1535 1536 1537 1537 1537 1537 1536 1535 1533 1531 1528 1525 1523 1521 1519 1518 1517 1515 1514 1514 1513 1513 1513 1512 1512 1512 1512 1512 1511 1511 1511 1511 1511 1510 1510 1510 1509 1509 1508
1519 1523 1526 1529 1531 1532 1534 1535 1535 1535 1535 1534 1533 1531 1529 1527 1525 1522 1520 1518 1516 1515 1514 1513 1512 1512 1512 1511 1511 1511 1511 1511 1511 1511 1511 1511 1511 1511 1512 1511 1511 1511 1510 1510
1516 1520 1524 1526 1528 1530 1531 1532 1533 1533 1533 1532 1531 1529 1528 1526 1523 1521 1519 1517 1515 1513 1513 1512 1511 1511 1510 1510 1510 1510 1510 1510 1511 1511 1511 1511 1512 1512 1512 1512 1512 1512 1511 1511
1513 1517 1520 1523 1525 1527 1528 1529 1530 1530 1530 1530 1528 1527 1525 1524 1522 1519 1517 1515 1514 1512 1511 1510 1510 1509 1509 1509 1509 1509 1509 1510 1510 1511 1511 1511 1512 1512 1512 1513 1513 1512 1512 1511
1509 1513 1517 1520 1522 1524 1526 1527 1527 1528 1528 1527 1526 1525 1523 1522 1520 1518 1516 1514 1512 1510 1509 1508 1508 1507 1507 1508 1508 1508 1508 1509 1509 1510 1510 1511 1511 1512 1512 1512 1512 1512 1512 1511
1507 1510 1514 1517 1519 1521 1523 1524 1525 1525 1525 1524 1523 1522 1521 1520 1518 1516 1513 1512 1510 1508 1507 1506 1505 1505 1505 1506 1506 1506 1507 1507 1508 1508 1509 1510 1510 1511 1511 1511 1511 1511 1511 1511
1504 1507 1511 1514 1516 1518 1519 1521 1521 1522 1522 1521 1521 1520 1519 1517 1516 1514 1512 1510 1508 1506 1504 1503 1503 1503 1503 1504 1504 1505 1505 1506 1506 1507 1507 1508 1509 1509 1510 1510 1510 1510 1510 1510
1501 1504 1507 1510 1512 1514 1516 1517 1518 1518 1518 1518 1518 1517 1516 1515 1513 1512 1510 1508 1506 1504 1502 1501 1500 1500 1501 1501 1502 1503 1503 1504 1504 1505 1506 1506 1507 1508 1508 1508 1509 1509 1508 1508
1497 1500 1503 1506 1508 1510 1512 1513 1514 1514 1514 1514 1514 1514 1513 1512 1511 1509 1508 1506 1504 1502 1500 1499 1498 1498 1498 1499 1500 1500 1501 1501 1502 1503 1503 1504 1505 1505 1506 1506 1507 1507 1507 1506
1493 1496 1499 1501 1504 1506 1508 1509 1509 1510 1510 1510 1510 1510 1510 1509 1508 1507 1505 1504 1502 1500 1498 1497 1496 1495 1496 1496 1497 1498 1499 1499 1500 1500 1501 1502 1502 1503 1503 1504 1504 1504 1505 1505